[[{"header":{"parameterUnit":"m.s-1","parameterCategory":1,"la1":30.2991,"la2":30.254,"lo1":-89.0895,"lo2":-89.0444,"dy":0.0017,"dx":0.0017,"nx":28,"ny":28,"refTime":"2024-08-08T03:00:00:Z","depth":0,"parameterNumber":2,"parameterNumberName":"U-component_of_WINDS"},"data":[0,0,0,0,0,0,0,0,0,0,0,0,0,0,0,0,0,0,0,0,0,0,0,0,0,0,0,0,0,0,0,0,0,0,0,0,0,0,0,0,0,0,0,0,0,0,0,0,0,0,0,0,0,0,0,0,0,0,1.7879,1.7879,0,1.7843,1.7842,1.7842,1.7774,1.7773,1.7771,1.777,1.7735,1.7735,1.7735,0,0,0,0,0,0,0,0,0,0,0,0,0,1.7892,1.7892,1.7879,1.7879,1.7878,1.7843,1.7842,1.7842,1.7774,1.7773,1.7771,1.7769,1.7734,1.7735,1.7735,0,0,0,0,0,0,0,0,0,0,0,0,0,1.7874,1.7892,1.7879,1.784,1.7836,1.7843,1.7842,1.7842,1.7774,1.7772,1.777,1.7769,1.7734,1.7735,1.7735,1.7777,0,0,1.7736,1.7737,0,0,0,0,0,0,0,0,1.7875,1.7874,1.7846,1.7843,1.7839,1.7811,1.7834,1.782,1.7775,1.7798,1.777,1.7768,1.7762,1.776,1.7757,1.7776,1.7774,1.7737,1.7737,1.7737,1.7737,0,0,0,0,0,0,0,1.7876,1.7875,1.7865,1.7846,1.7841,1.7825,1.782,1.7831,1.7791,1.7796,1.7791,1.7787,1.7759,1.7757,1.7756,1.7774,1.7737,1.7737,1.7737,1.7737,1.7826,1.7828,0,0,0,0,0,0,1.7883,1.7876,1.7866,1.7864,1.7852,1.7826,1.7821,1.7822,1.7791,1.7784,1.7789,1.7784,1.7757,1.7756,1.7754,1.7803,1.7737,1.7737,1.7738,1.7824,1.7826,1.7829,0,0,0,0,0,0,1.7884,1.7883,1.7867,1.7869,1.7865,1.7828,1.7829,1.7822,1.782,1.7786,1.7779,1.7794,1.7756,1.7754,1.7772,1.7801,1.7738,1.7738,1.7821,1.7825,1.7828,1.79,0,0,0,0,0,0,1.7884,1.7883,1.7899,1.7869,1.7866,1.7886,1.7831,1.7823,1.7821,1.7814,1.7789,1.7783,1.7754,1.7772,1.7773,1.78,1.7738,1.7819,1.7823,1.7827,1.7895,1.7905,1.7914,0,0,0,0,0,1.7885,1.7921,1.79,1.7899,1.7884,1.7887,1.7885,1.7851,1.7823,1.7839,1.7817,1.7783,1.7797,1.7774,1.7775,1.7803,1.7817,1.7822,1.7826,1.7891,1.7903,1.7914,0,0,0,0,0,0,1.7955,1.7916,1.7893,1.792,1.7907,1.7876,1.7894,1.7865,1.7861,1.7855,1.7813,1.7808,1.7832,1.7819,1.7794,1.7842,1.7802,1.7807,1.7851,1.7862,1.7871,1.7875,1.7739,0,0,0,0,0,1.7974,1.7979,1.7945,1.7972,1.7967,1.7932,1.7932,1.7907,1.7892,1.7887,1.7866,1.7854,1.7856,1.7858,1.7857,1.7892,1.7886,1.7911,1.7921,1.7929,1.7934,1.7953,1.7964,1.7844,1.7844,1.7844,0,0,1.8013,1.7992,1.7998,1.7986,1.7973,1.7981,1.7928,1.7938,1.7944,1.7889,1.7905,1.789,1.7873,1.79,1.7911,1.789,1.7966,1.7935,1.7941,1.7942,1.7959,1.797,1.798,1.7847,1.7847,1.7846,0,0,1.8087,1.8072,1.8093,1.8081,1.8063,1.8039,1.8044,1.8017,1.8004,1.802,1.7979,1.7985,1.7988,1.7978,1.7974,1.8045,1.8014,1.8045,1.8096,1.8115,1.8124,1.8132,1.8159,1.8169,1.8051,1.8051,1.8051,0,1.8138,1.8147,1.8108,1.8121,1.8117,1.8067,1.8089,1.8079,1.8062,1.8061,1.8037,1.804,1.8026,1.805,1.8068,1.8065,1.8071,1.8049,1.8126,1.8134,1.8141,1.8166,1.8176,1.8055,1.8054,1.8054,1.8054,0,1.8212,1.8218,1.8238,1.8222,1.822,1.8238,1.8202,1.8205,1.8179,1.8158,1.8175,1.8156,1.8151,1.8154,1.8129,1.8176,1.8163,1.8133,1.8092,1.8157,1.818,1.8189,1.8061,1.8059,1.8058,1.8057,0,0,1.8332,1.8293,1.8301,1.8293,1.8268,1.8273,1.8288,1.8283,1.8287,1.8276,1.8289,1.8292,1.8264,1.8259,1.8233,1.8249,1.8308,1.8217,1.8216,1.8236,1.8359,1.8384,1.8396,1.8287,1.8288,1.829,1.8361,0,1.8402,1.8426,1.8391,1.8423,1.843,1.8381,1.8394,1.8381,1.8362,1.8365,1.8343,1.8347,1.8309,1.8306,1.8319,1.8298,1.8333,1.8292,1.83,1.83,1.8308,1.8407,1.8433,1.8502,1.837,1.8371,1.8372,0,1.8489,1.8482,1.8515,1.8488,1.8489,1.8502,1.8494,1.8497,1.8481,1.8466,1.846,1.8429,1.8442,1.8401,1.842,1.8393,1.8394,1.8384,1.8386,1.8387,1.8342,1.8413,1.8523,1.8534,1.8386,1.8385,1.8384,0,1.8576,1.8574,1.8593,1.8588,1.8557,1.8567,1.8555,1.8537,1.8536,1.8529,1.8528,1.8523,1.8521,1.8519,1.8487,1.8459,1.8511,1.8466,1.85,1.8501,1.8514,1.8515,1.8628,1.8512,1.8511,1.8511,1.8511,0,1.866,1.8682,1.8632,1.8645,1.8668,1.8627,1.8652,1.8635,1.8619,1.8628,1.8585,1.8594,1.855,1.8555,1.853,1.8551,1.855,1.8539,1.8532,1.8544,1.8546,1.8545,1.8541,1.8514,1.8513,1.8513,1.8512,0,1.8762,1.8729,1.8747,1.8716,1.8708,1.8728,1.8701,1.8712,1.8689,1.87,1.8701,1.8665,1.8669,1.8636,1.8633,1.8616,1.8649,1.8633,1.8655,1.8651,1.8687,1.8685,1.8806,1.882,1.8693,1.8694,1.8695,0,1.8819,1.8835,1.8805,1.8807,1.8797,1.8801,1.88,1.876,1.8761,1.8744,1.8757,1.8756,1.8754,1.8761,1.8736,1.8734,1.8719,1.8761,1.8718,1.873,1.8722,1.8722,1.8724,1.8771,1.8773,1.8774,1.8775,0,1.8925,1.8907,1.8907,1.8901,1.89,1.8893,1.8884,1.8888,1.8845,1.8848,1.885,1.8849,1.8845,1.8846,1.8838,1.8826,1.8795,1.8788,1.8796,1.881,1.8823,1.8818,1.8682,1.8786,1.8785,1.8784,1.8784,1.8783,1.9007,1.9019,1.9001,1.9001,1.899,1.8982,1.899,1.8968,1.8969,1.8963,1.8939,1.8947,1.893,1.8917,1.8908,1.8913,1.8892,1.8904,1.8907,1.8911,1.8919,1.882,1.8911,1.8911,1.891,1.891,1.891,0,1.9112,1.9097,1.9098,1.9086,1.9087,1.9055,1.9043,1.9046,1.9053,1.9039,1.9038,1.9041,1.9041,1.9016,1.9013,1.9022,1.9008,1.9023,1.9023,1.9022,1.8936,1.893,1.9035,1.9035,1.9035,1.9035,1.9035,1.9035,1.9168,1.9187,1.9168,1.9181,1.9166,1.9172,1.9168,1.9161,1.915,1.9156,1.9155,1.9138,1.912,1.9116,1.9115,1.9107,1.9109,1.913,1.9118,1.9039,1.9027,1.9016,1.901,1.913,1.913,1.9203,1.9204,1.9204]},{"header":{"parameterUnit":"m.s-1","parameterCategory":1,"la1":30.2991,"la2":30.254,"lo1":-89.0895,"lo2":-89.0444,"dy":0.0017,"dx":0.0017,"nx":28,"ny":28,"refTime":"2024-08-08T03:00:00:Z","depth":0,"parameterNumber":3,"parameterNumberName":"V-component_of_WINDS"},"data":[0,0,0,0,0,0,0,0,0,0,0,0,0,0,0,0,0,0,0,0,0,0,0,0,0,0,0,0,0,0,0,0,0,0,0,0,0,0,0,0,0,0,0,0,0,0,0,0,0,0,0,0,0,0,0,0,0,0,-0.2139,-0.2139,0,-0.2143,-0.2143,-0.2143,-0.214,-0.2139,-0.2139,-0.2139,-0.2141,-0.2142,-0.2142,0,0,0,0,0,0,0,0,0,0,0,0,0,-0.2128,-0.2128,-0.2139,-0.2139,-0.2139,-0.2143,-0.2143,-0.2143,-0.214,-0.2139,-0.2139,-0.2139,-0.2141,-0.2142,-0.2142,0,0,0,0,0,0,0,0,0,0,0,0,0,-0.2132,-0.2128,-0.2139,-0.2138,-0.2138,-0.2143,-0.2143,-0.2143,-0.214,-0.2139,-0.2139,-0.2139,-0.2141,-0.2142,-0.2142,-0.2148,0,0,-0.2143,-0.2143,0,0,0,0,0,0,0,0,-0.2132,-0.2133,-0.2138,-0.2138,-0.2138,-0.2141,-0.214,-0.2145,-0.214,-0.2139,-0.2139,-0.2139,-0.2141,-0.2142,-0.2143,-0.2148,-0.2148,-0.2143,-0.2143,-0.2143,-0.2143,0,0,0,0,0,0,0,-0.2132,-0.2132,-0.2141,-0.2138,-0.2138,-0.2137,-0.2137,-0.2141,-0.2141,-0.2139,-0.2139,-0.2139,-0.2141,-0.2142,-0.2143,-0.2148,-0.2143,-0.2143,-0.2143,-0.2143,-0.216,-0.216,0,0,0,0,0,0,-0.2132,-0.2132,-0.2141,-0.2141,-0.2134,-0.2137,-0.2138,-0.214,-0.2141,-0.2141,-0.214,-0.2139,-0.2142,-0.2142,-0.2143,-0.2151,-0.2143,-0.2143,-0.2144,-0.216,-0.216,-0.216,0,0,0,0,0,0,-0.2131,-0.2132,-0.2141,-0.2137,-0.2137,-0.2138,-0.214,-0.214,-0.2142,-0.2142,-0.2142,-0.2141,-0.2142,-0.2142,-0.2147,-0.2151,-0.2143,-0.2144,-0.2159,-0.216,-0.216,-0.2166,0,0,0,0,0,0,-0.2131,-0.2132,-0.2135,-0.2137,-0.2138,-0.2145,-0.2141,-0.2141,-0.2142,-0.2142,-0.2143,-0.2143,-0.2142,-0.2147,-0.2147,-0.2151,-0.2144,-0.2159,-0.216,-0.216,-0.2166,-0.2167,-0.2168,0,0,0,0,0,-0.2131,-0.2136,-0.2135,-0.2136,-0.2141,-0.2145,-0.2146,-0.2145,-0.2143,-0.2145,-0.2145,-0.2143,-0.215,-0.2147,-0.2148,-0.2152,-0.2159,-0.216,-0.216,-0.2165,-0.2167,-0.2168,0,0,0,0,0,0,-0.2133,-0.2136,-0.2135,-0.2141,-0.2143,-0.2145,-0.2148,-0.2146,-0.2149,-0.2148,-0.2147,-0.2147,-0.2152,-0.2152,-0.2149,-0.2158,-0.2154,-0.2155,-0.2158,-0.2159,-0.216,-0.216,-0.2144,0,0,0,0,0,-0.2135,-0.2139,-0.214,-0.2145,-0.2147,-0.2147,-0.2149,-0.2148,-0.215,-0.2151,-0.2151,-0.2153,-0.2156,-0.2157,-0.216,-0.2166,-0.2166,-0.2169,-0.217,-0.2171,-0.2172,-0.2176,-0.2177,-0.2162,-0.2162,-0.2162,0,0,-0.2137,-0.2139,-0.2142,-0.2146,-0.2148,-0.2152,-0.2148,-0.2152,-0.2154,-0.2151,-0.2156,-0.2157,-0.2158,-0.2164,-0.2166,-0.2164,-0.2176,-0.2172,-0.2172,-0.2172,-0.2176,-0.2178,-0.2179,-0.2163,-0.2163,-0.2163,0,0,-0.2144,-0.2146,-0.2151,-0.2153,-0.2156,-0.2156,-0.2158,-0.216,-0.216,-0.2165,-0.2163,-0.2166,-0.2171,-0.2173,-0.2174,-0.2183,-0.2181,-0.2184,-0.2189,-0.2193,-0.2194,-0.2195,-0.2199,-0.22,-0.2184,-0.2184,-0.2184,0,-0.2147,-0.2153,-0.2153,-0.2158,-0.216,-0.2159,-0.2164,-0.2165,-0.2168,-0.217,-0.2168,-0.2174,-0.2175,-0.2182,-0.2184,-0.2185,-0.2187,-0.2183,-0.2194,-0.2195,-0.2196,-0.2199,-0.2201,-0.2185,-0.2185,-0.2185,-0.2185,0,-0.2157,-0.2161,-0.2165,-0.2169,-0.2172,-0.2176,-0.2177,-0.218,-0.2179,-0.218,-0.2186,-0.2187,-0.219,-0.2191,-0.219,-0.2198,-0.2197,-0.2194,-0.219,-0.2198,-0.2201,-0.2202,-0.2185,-0.2185,-0.2185,-0.2185,0,0,-0.2164,-0.217,-0.2171,-0.2174,-0.2177,-0.2181,-0.2185,-0.2189,-0.2192,-0.2194,-0.2199,-0.2203,-0.2202,-0.2203,-0.2202,-0.2206,-0.2214,-0.2203,-0.2203,-0.2205,-0.2223,-0.2225,-0.2226,-0.2213,-0.2213,-0.2213,-0.2223,0,-0.2172,-0.2181,-0.2182,-0.219,-0.2194,-0.2194,-0.2198,-0.22,-0.2202,-0.2205,-0.2206,-0.221,-0.2207,-0.2208,-0.2211,-0.2212,-0.2217,-0.2211,-0.2216,-0.2216,-0.2216,-0.2228,-0.2229,-0.2239,-0.2224,-0.2224,-0.2224,0,-0.2181,-0.2186,-0.2194,-0.2199,-0.22,-0.2204,-0.2209,-0.2212,-0.2215,-0.2216,-0.2218,-0.2218,-0.2223,-0.2219,-0.2226,-0.2222,-0.2224,-0.2225,-0.2225,-0.2225,-0.2221,-0.2228,-0.2241,-0.2243,-0.2226,-0.2226,-0.2226,0,-0.2187,-0.2194,-0.2201,-0.2203,-0.2208,-0.2211,-0.2213,-0.2216,-0.2219,-0.2222,-0.2224,-0.2228,-0.223,-0.2233,-0.2233,-0.223,-0.2241,-0.2236,-0.2241,-0.2241,-0.2243,-0.2243,-0.2257,-0.2244,-0.2244,-0.2244,-0.2244,0,-0.2195,-0.22,-0.2204,-0.2208,-0.2214,-0.2215,-0.2221,-0.2223,-0.2226,-0.223,-0.2229,-0.2233,-0.2234,-0.2238,-0.2238,-0.2244,-0.2245,-0.2245,-0.2245,-0.2245,-0.2245,-0.2247,-0.2246,-0.2245,-0.2245,-0.2244,-0.2244,0,-0.2201,-0.2204,-0.2211,-0.2216,-0.2217,-0.2222,-0.2225,-0.2229,-0.2231,-0.2236,-0.2238,-0.224,-0.2245,-0.2245,-0.2251,-0.2251,-0.2258,-0.2258,-0.2258,-0.2257,-0.2262,-0.2262,-0.2277,-0.2279,-0.2266,-0.2266,-0.2266,0,-0.2206,-0.2211,-0.2217,-0.222,-0.2222,-0.2228,-0.2231,-0.2232,-0.2236,-0.224,-0.2244,-0.2249,-0.2253,-0.2261,-0.2262,-0.2267,-0.2266,-0.2271,-0.2267,-0.2267,-0.2266,-0.2266,-0.2267,-0.2272,-0.2272,-0.2272,-0.2272,0,-0.2215,-0.2217,-0.2222,-0.2228,-0.2232,-0.2236,-0.224,-0.2243,-0.2245,-0.2249,-0.2254,-0.2257,-0.2264,-0.2269,-0.2273,-0.2275,-0.2274,-0.2274,-0.2275,-0.2275,-0.2275,-0.2276,-0.226,-0.2273,-0.2273,-0.2273,-0.2273,-0.2273,-0.2221,-0.2226,-0.2231,-0.2237,-0.224,-0.2245,-0.2249,-0.2252,-0.2256,-0.2262,-0.2263,-0.2269,-0.2273,-0.2279,-0.2281,-0.2286,-0.2284,-0.2286,-0.2286,-0.2287,-0.2288,-0.2275,-0.2287,-0.2287,-0.2287,-0.2286,-0.2286,0,-0.2231,-0.2234,-0.224,-0.2246,-0.2251,-0.2251,-0.2256,-0.2259,-0.2265,-0.2269,-0.2274,-0.2281,-0.2286,-0.2288,-0.2294,-0.2297,-0.2297,-0.2298,-0.2298,-0.2299,-0.2289,-0.2287,-0.2298,-0.2298,-0.2298,-0.2298,-0.2298,-0.2298,-0.2236,-0.2243,-0.2246,-0.2255,-0.2259,-0.2265,-0.2268,-0.2272,-0.2276,-0.2284,-0.2288,-0.229,-0.2294,-0.23,-0.2305,-0.2305,-0.2307,-0.2309,-0.231,-0.23,-0.2299,-0.2298,-0.2296,-0.231,-0.231,-0.2319,-0.2319,-0.2319]}]]